Date,TemperatureHighF,TemperatureAvgF,TemperatureLowF,DewpointHighF,DewpointAvgF,DewpointLowF,HumidityHigh,HumidityAvg,HumidityLow,PressureMaxIn,PressureMinIn,WindSpeedMaxMPH,WindSpeedAvgMPH,GustSpeedMaxMPH,PrecipitationSumIn
2013-11-1,57.7,51.3,40.2,57.7,49.1,36.7,100,92,76,29.56,29.04,9,4,18,0.85
2013-11-2,40.9,35.9,26.1,36.9,30.3,17.5,91,80,65,30.00,29.56,8,2,11,0.01
2013-11-3,34.9,27.2,20.5,20.6,17.3,14.1,89,68,42,30.56,30.00,9,1,11,0.00
2013-11-4,35.7,27.3,16.7,21.8,17.7,14.5,95,69,43,30.73,30.56,5,1,9,0.00
2013-11-5,44.5,35.0,27.5,31.0,25.2,19.0,82,68,49,30.63,30.36,5,1,8,0.00
2013-11-6,53.1,44.4,36.1,48.7,39.7,30.8,98,84,61,30.36,29.67,10,2,12,0.11
2013-11-7,51.4,39.5,32.2,51.1,36.0,27.4,99,87,76,29.81,29.57,8,2,14,0.17
2013-11-8,35.4,31.7,29.0,28.0,27.1,25.8,90,83,72,30.07,29.78,6,1,8,0.02
2013-11-9,36.5,32.3,28.7,28.7,25.5,23.0,94,76,62,30.15,29.88,7,1,8,0.01
2013-11-10,37.4,33.7,30.1,34.5,32.0,28.7,97,94,89,29.88,29.66,8,2,11,0.14
2013-11-11,33.9,29.6,19.7,32.6,26.9,16.6,95,90,80,30.03,29.75,9,2,10,0.13
2013-11-12,26.2,21.7,16.7,20.6,17.7,14.0,90,84,75,30.26,29.93,9,2,15,0.00
2013-11-13,28.4,21.8,13.9,24.2,17.4,11.5,91,83,69,30.28,29.92,8,1,9,0.00
2013-11-14,37.9,33.9,28.9,32.7,29.3,24.2,90,83,79,29.96,29.87,6,1,8,0.00
2013-11-15,43.6,38.4,32.5,36.4,33.7,29.9,92,83,72,30.12,29.93,3,0,4,0.00
2013-11-16,51.0,39.8,32.1,36.3,33.5,29.3,90,79,55,30.23,30.10,3,0,6,0.00
2013-11-17,51.0,40.6,30.1,50.7,38.3,27.2,99,91,81,30.20,29.51,8,3,12,0.17
2013-11-18,52.0,43.3,29.1,51.5,40.6,25.5,99,90,76,29.51,29.21,13,4,18,0.55
2013-11-19,28.8,26.3,23.3,24.7,20.5,15.6,90,79,69,30.37,29.52,9,3,15,0.02
2013-11-20,33.9,25.2,17.9,20.6,17.4,14.4,87,73,49,30.63,30.41,5,0,5,0.00
2013-11-21,37.3,27.4,17.6,26.7,20.0,14.1,89,75,51,30.61,30.32,4,0,7,0.00
2013-11-22,37.6,34.4,30.7,34.6,30.8,23.6,96,87,67,30.30,29.75,3,0,4,0.18
2013-11-23,29.2,20.6,14.2,27.7,17.7,10.8,94,88,83,29.93,29.80,8,1,11,0.02
2013-11-24,15.4,10.9,5.8,10.8,5.8,1.1,86,80,68,30.22,29.86,9,3,13,0.00
2013-11-25,25.5,12.3,2.5,23.5,8.2,-1.2,93,84,72,30.34,30.05,7,1,8,0.06
2013-11-26,33.1,29.8,25.7,29.4,27.5,23.7,96,91,85,30.15,29.95,7,2,8,0.06
2013-11-27,33.9,29.2,19.8,32.1,27.6,17.4,96,94,90,29.93,29.39,6,2,10,0.62
2013-11-28,18.6,14.0,9.6,16.2,10.2,5.2,91,84,78,30.40,29.51,6,2,13,0.00
2013-11-29,21.7,8.0,0.2,13.1,3.6,-5.0,87,82,69,30.77,30.40,3,0,4,0.00
2013-11-30,15.7,6.1,-8.0,12.2,2.3,-12.8,90,84,78,30.79,30.30,8,1,10,0.00